Home > Time Zones > World Clock > Weather > Japan > Kobe > Past weeks

Flag for Japan Weather past 2 weeks in Kobe, Japan

Now
70 °F

Partly sunny.


Feels Like: 70 °F
Forecast: 65 / 76 °F
Wind: 5 mph from Northwest

Location: Osaka International Airport

Current Time: Sep 18, 2014 at 7:42:07 AM

Latest Report: Sep 18, 2014 at 7:00 AM


Visibility: N/A

Pressure: 29.95 "Hg

Humidity: 57%

Dew point: 54 °F

Location of KobeLocation

Historic Weather in Kobe — Graph

°F

Kobe temperature yesterday

Maximum temperature yesterday: 81 °F (at 1:00 PM)
Minimum temperature yesterday: 64 °F (at 6:00 AM)
Average temperature yesterday: 74 °F

Past Weeks' High & Low Weather Summary

 TemperatureHumidityPressure
High88 °F (Sep 6, 1:00 PM)100% (Sep 11, 5:00 AM)29.98 "Hg (Sep 11, 5:00 AM)
Low63 °F (Sep 12, 5:00 AM)31% (Sep 10, 2:00 PM)29.59 "Hg (Sep 8, 2:00 PM)
Average78 °F63%29.83 "Hg
* Reported Sep 3 6:00 AM — Sep 18 6:00 AM, Kobe, Weather by CustomWeather, © 2014

Note: Actual official high and low records may vary slightly from our data, if they occured in-between our weather recording intervals... More about our weather records

Advertising

Kobe weather history for previous 24 hours

 ConditionsComfort  
Time TempWeatherWind HumidityBarometerVisibility
6:00 AM
Sep 18
66 °FScattered clouds.2 mph60%29.92 "HgN/A
5:00 AM66 °FPassing clouds.6 mph64%29.92 "HgN/A
8:00 PM
Sep 17
72 °FPassing clouds.7 mph57%29.92 "HgN/A
7:00 PM73 °FClear.12 mph53%29.92 "Hg10 mi
6:00 PM73 °FPartly sunny.12 mph57%29.92 "HgN/A
5:00 PM77 °FPartly sunny.13 mph47%29.92 "HgN/A
4:00 PM79 °FScattered clouds.9 mph48%29.89 "HgN/A
3:00 PM81 °FBroken clouds.10 mph42%29.92 "HgN/A
2:00 PM81 °FBroken clouds.7 mph45%29.89 "HgN/A
1:00 PM81 °FBroken clouds.5 mph48%29.92 "HgN/A
12:00 PM79 °FBroken clouds.6 mph51%29.92 "HgN/A
11:00 AM75 °FBroken clouds.5 mph57%29.95 "HgN/A
10:00 AM73 °FBroken clouds.5 mph61%29.98 "HgN/A
9:00 AM73 °FBroken clouds.3 mph61%29.98 "HgN/A
8:00 AM73 °FBroken clouds.3 mph69%29.98 "HgN/A
7:00 AM68 °FScattered clouds.3 mph83%29.98 "HgN/A
Weather by CustomWeather, © 2014

See weather overviewHow to use our weather pages